User: anonymous   Login
Location: Unspecified
(0.0000°N, 0.0000°E)
Time: 19:07:56
(UTC+00:00)
Language:

Tiros 1 despin weight - Orbit

View from above orbital plane
View from above orbital plane
View from above satellite
View from above satellite

Ground track
Ground track

The orbit data is extracted from the following two-line orbital elements,

1 00115U 60002D   15142.28273399  .00000773  00000-0  12286-3 0  9990
2 00115 048.1657 178.5643 0035302 006.0796 354.0538 14.82064976937908
Epoch (UTC): 22 May 2015 06:47:08
Eccentricity: 0.0035302
inclination: 48.1657°
perigee height: 598 km
apogee height: 647 km
right ascension of ascending node: 178.5643°
argument of perigee: 6.0796°
revolutions per day: 14.82064976
mean anomaly at epoch: 354.0538°
orbit number at epoch: 93790

The dashed part of the orbit path shows where the satellite is in the earth's shadow,  

DLR